• In Germany
  • List of Countries
  • For 7 days
  • Water Temperature
  • Satellite Maps
  • Weather Map
  • Weather Widgets
  • user-avatar
    Login

    Hourly Weather Lubango

    Today, 23 May, Wednesday

    Time Temperature Precipitation Wind Pressure Humidity
    00:00 +14°C° 0 mm 1 mps 610 mmHg 47%
    01:00 +14°C° 0 mm 1 mps 610 mmHg 49%
    02:00 +14°C° 0 mm 1 mps 610 mmHg 49%
    03:00 +14°C° 0 mm 2 mps 610 mmHg 50%
    04:00 +13°C° 0 mm 2 mps 609 mmHg 50%
    05:00 +13°C° 0 mm 2 mps 610 mmHg 50%
    06:00 +13°C° 0 mm 2 mps 610 mmHg 50%
    07:00 +13°C° 0 mm 2 mps 610 mmHg 50%
    08:00 +16°C° 0 mm 3 mps 611 mmHg 41%
    09:00 +19°C° 0 mm 3 mps 612 mmHg 33%
    10:00 +23°C° 0 mm 4 mps 614 mmHg 24%
    11:00 +23°C° 0 mm 4 mps 613 mmHg 22%
    12:00 +25°C° 0 mm 3 mps 613 mmHg 20%
    13:00 +26°C° 0 mm 3 mps 613 mmHg 18%
    14:00 +26°C° 0 mm 3 mps 613 mmHg 19%
    15:00 +26°C° 0 mm 3 mps 612 mmHg 20%
    16:00 +25°C° 0 mm 3 mps 612 mmHg 20%
    17:00 +23°C° 0 mm 2 mps 611 mmHg 26%
    18:00 +19°C° 0 mm 2 mps 610 mmHg 32%
    19:00 +16°C° 0 mm 2 mps 610 mmHg 38%
    20:00 +16°C° 0 mm 2 mps 610 mmHg 39%
    21:00 +15°C° 0 mm 1 mps 610 mmHg 41%
    22:00 +15°C° 0 mm 1 mps 610 mmHg 42%
    23:00 +14°C° 0 mm 1 mps 610 mmHg 42%

    Tomorrow, 24 May, Thursday

    Time Temperature Precipitation Wind Pressure Humidity
    00:00 +14°C° 0 mm 1 mps 610 mmHg 42%
    01:00 +14°C° 0 mm 1 mps 610 mmHg 41%
    02:00 +13°C° 0 mm 1 mps 610 mmHg 43%
    03:00 +13°C° 0 mm 2 mps 609 mmHg 44%
    04:00 +12°C° 0 mm 2 mps 609 mmHg 46%
    05:00 +12°C° 0 mm 2 mps 609 mmHg 45%
    06:00 +13°C° 0 mm 2 mps 609 mmHg 45%
    07:00 +13°C° 0 mm 2 mps 609 mmHg 44%
    08:00 +16°C° 0 mm 3 mps 611 mmHg 37%
    09:00 +19°C° 0 mm 3 mps 612 mmHg 30%
    10:00 +24°C° 0 mm 3 mps 614 mmHg 23%
    11:00 +25°C° 0 mm 3 mps 613 mmHg 21%
    12:00 +26°C° 0 mm 3 mps 613 mmHg 20%
    13:00 +27°C° 0 mm 2 mps 613 mmHg 18%
    14:00 +26°C° 0 mm 2 mps 612 mmHg 19%
    15:00 +26°C° 0 mm 2 mps 612 mmHg 19%
    16:00 +26°C° 0 mm 2 mps 611 mmHg 19%
    17:00 +21°C° 0 mm 2 mps 610 mmHg 25%
    18:00 +19°C° 0 mm 1 mps 609 mmHg 31%
    19:00 +15°C° 0 mm 1 mps 608 mmHg 36%
    20:00 +14°C° 0 mm 1 mps 609 mmHg 39%
    21:00 +14°C° 0 mm 1 mps 609 mmHg 42%
    22:00 +13°C° 0 mm 1 mps 609 mmHg 45%
    23:00 +13°C° 0 mm 1 mps 609 mmHg 46%

    Day after tomorrow, 25 May, Friday

    Time Temperature Precipitation Wind Pressure Humidity
    00:00 +13°C° 0 mm 1 mps 608 mmHg 47%
    01:00 +12°C° 0 mm 1 mps 608 mmHg 48%
    02:00 +12°C° 0 mm 1 mps 608 mmHg 49%
    03:00 +12°C° 0 mm 2 mps 608 mmHg 50%
    04:00 +12°C° 0 mm 2 mps 607 mmHg 50%
    05:00 +12°C° 0 mm 2 mps 608 mmHg 51%
    06:00 +12°C° 0 mm 2 mps 608 mmHg 52%
    07:00 +12°C° 0 mm 2 mps 608 mmHg 53%
    08:00 +16°C° 0 mm 2 mps 610 mmHg 45%
    09:00 +19°C° 0 mm 3 mps 611 mmHg 36%
    10:00 +22°C° 0 mm 4 mps 613 mmHg 28%
    11:00 +24°C° 0 mm 3 mps 612 mmHg 26%
    12:00 +25°C° 0 mm 3 mps 612 mmHg 24%
    13:00 +26°C° 0 mm 2 mps 612 mmHg 21%
    14:00 +26°C° 0 mm 2 mps 611 mmHg 22%
    15:00 +26°C° 0 mm 2 mps 611 mmHg 22%
    16:00 +26°C° 0 mm 1 mps 610 mmHg 22%
    17:00 +23°C° 0 mm 1 mps 610 mmHg 27%
    18:00 +20°C° 0 mm 1 mps 609 mmHg 32%
    19:00 +16°C° 0 mm 1 mps 608 mmHg 37%
    20:00 +15°C° 0 mm 1 mps 608 mmHg 39%
    21:00 +14°C° 0 mm 1 mps 608 mmHg 41%
    22:00 +14°C° 0 mm 1 mps 608 mmHg 43%
    23:00 +13°C° 0 mm 1 mps 608 mmHg 44%

    26 May, Saturday

    Time Temperature Precipitation Wind Pressure Humidity
    00:00 +13°C° 0 mm 1 mps 608 mmHg 44%
    01:00 +13°C° 0 mm 1 mps 608 mmHg 45%
    02:00 +13°C° 0 mm 2 mps 608 mmHg 46%
    03:00 +12°C° 0 mm 2 mps 607 mmHg 47%
    04:00 +12°C° 0 mm 2 mps 607 mmHg 48%
    05:00 +12°C° 0 mm 2 mps 607 mmHg 49%
    06:00 +12°C° 0 mm 2 mps 608 mmHg 50%
    07:00 +12°C° 0 mm 2 mps 608 mmHg 51%
    08:00 +16°C° 0 mm 3 mps 610 mmHg 45%
    09:00 +19°C° 0 mm 3 mps 611 mmHg 38%
    10:00 +22°C° 0 mm 4 mps 613 mmHg 31%
    11:00 +25°C° 0 mm 3 mps 612 mmHg 29%
    12:00 +26°C° 0 mm 2 mps 612 mmHg 26%
    13:00 +27°C° 0 mm 2 mps 612 mmHg 24%
    14:00 +26°C° 0 mm 2 mps 611 mmHg 25%
    15:00 +26°C° 0 mm 2 mps 611 mmHg 26%
    16:00 +26°C° 0 mm 1 mps 611 mmHg 27%
    17:00 +23°C° 0 mm 1 mps 610 mmHg 32%
    18:00 +20°C° 0 mm 1 mps 610 mmHg 37%
    19:00 +18°C° 0 mm 1 mps 609 mmHg 42%
    20:00 +16°C° 0 mm 1 mps 609 mmHg 45%
    21:00 +15°C° 0 mm 1 mps 609 mmHg 48%
    22:00 +14°C° 0 mm 1 mps 609 mmHg 51%
    23:00 +13°C° 0 mm 1 mps 609 mmHg 50%

    27 May, Sunday

    Time Temperature Precipitation Wind Pressure Humidity
    00:00 +13°C° 0 mm 1 mps 608 mmHg 49%
    01:00 +13°C° 0 mm 1 mps 608 mmHg 49%
    02:00 +13°C° 0 mm 1 mps 608 mmHg 48%
    03:00 +12°C° 0 mm 2 mps 608 mmHg 48%
    04:00 +12°C° 0 mm 2 mps 608 mmHg 48%
    05:00 +12°C° 0 mm 2 mps 608 mmHg 49%
    06:00 +12°C° 0 mm 2 mps 609 mmHg 50%
    07:00 +12°C° 0 mm 3 mps 609 mmHg 51%
    08:00 +16°C° 0 mm 3 mps 610 mmHg 45%
    09:00 +19°C° 0 mm 4 mps 612 mmHg 38%
    10:00 +22°C° 0 mm 4 mps 613 mmHg 32%
    11:00 +25°C° 0 mm 4 mps 613 mmHg 29%
    12:00 +26°C° 0 mm 3 mps 613 mmHg 26%
    13:00 +27°C° 0 mm 3 mps 613 mmHg 24%
    14:00 +27°C° 0 mm 2 mps 612 mmHg 24%
    15:00 +26°C° 0 mm 2 mps 612 mmHg 24%
    16:00 +26°C° 0 mm 2 mps 612 mmHg 24%
    17:00 +23°C° 0 mm 2 mps 611 mmHg 31%
    18:00 +20°C° 0 mm 1 mps 610 mmHg 37%
    19:00 +16°C° 0 mm 1 mps 610 mmHg 44%
    20:00 +15°C° 0 mm 1 mps 610 mmHg 46%
    21:00 +15°C° 0 mm 1 mps 610 mmHg 49%
    22:00 +14°C° 0 mm 1 mps 610 mmHg 51%
    23:00 +13°C° 0 mm 1 mps 610 mmHg 51%

    28 May, Monday

    Time Temperature Precipitation Wind Pressure Humidity
    00:00 +13°C° 0 mm 1 mps 610 mmHg 52%
    01:00 +13°C° 0 mm 1 mps 609 mmHg 52%
    02:00 +13°C° 0 mm 1 mps 609 mmHg 51%
    03:00 +13°C° 0 mm 1 mps 609 mmHg 51%
    04:00 +12°C° 0 mm 1 mps 609 mmHg 51%
    05:00 +13°C° 0 mm 1 mps 609 mmHg 51%
    06:00 +13°C° 0 mm 1 mps 610 mmHg 52%
    07:00 +13°C° 0 mm 1 mps 610 mmHg 52%
    08:00 +16°C° 0 mm 2 mps 612 mmHg 45%
    09:00 +20°C° 0 mm 2 mps 613 mmHg 38%
    10:00 +24°C° 0 mm 3 mps 614 mmHg 30%
    11:00 +25°C° 0 mm 3 mps 614 mmHg 28%
    12:00 +26°C° 0 mm 2 mps 614 mmHg 26%
    13:00 +27°C° 0 mm 2 mps 613 mmHg 24%
    14:00 +27°C° 0 mm 2 mps 613 mmHg 24%
    15:00 +27°C° 0 mm 2 mps 613 mmHg 24%
    16:00 +27°C° 0 mm 2 mps 612 mmHg 24%
    17:00 +23°C° 0 mm 2 mps 611 mmHg 30%
    18:00 +20°C° 0 mm 1 mps 611 mmHg 37%
    19:00 +16°C° 0 mm 1 mps 610 mmHg 43%
    20:00 +15°C° 0 mm 1 mps 610 mmHg 45%
    21:00 +15°C° 0 mm 1 mps 610 mmHg 48%
    22:00 +14°C° 0 mm 1 mps 610 mmHg 50%
    23:00 +14°C° 0 mm 1 mps 609 mmHg 50%
    Show more